ニート-リニア彗星

410P/NEAT-LINEAR (2021)

English version
Home page
Updated on December 18, 2022

---------------------------------------------------------------------

・ プロフィール

符号 410P/2020 W2
検出日 2020年11月16日
検出光度 20.1等
検出者 D. Rankin (Mount Lemmon)

・ 写真集

・ 軌道要素

Epoch 2022 Jan. 21.0 TT = JDT 2459600.5
T 2021 June 23.56553 TT                                 Rudenko
q   3.2469468            (2000.0)            P               Q
n   0.05765393     Peri.  313.09297     -0.05991454     -0.99267048
a   6.6361590      Node   139.98057     +0.95669193     -0.08711087
e   0.5107190      Incl.    9.39357     +0.28486979     +0.08376765
P  17.1
From 215 observations 2005 Jan. 17-2022 Feb. 2, mean residual 0".4.

・ 光度変化

        m1 = 11.5 + 5 logΔ + 10.0 log r(t - 150)

---------------------------------------------------------------------

軌道要素はM.P.E.C. 2022-C56に掲載されたものです。
光度グラフはComet for Windowsで作成したものです。

---------------------------------------------------------------------

Copyright(C) Seiichi Yoshida (comet@aerith.net). All rights reserved.